Location: Bright Skies Observatory
(38.9689°N, 77.0681°W)
Time: 03:17:30
(UTC-04:00)

Daily predictions for brighter satellites

Satellite Brightness Start Highest point End
(mag) Time Altitude Azimuth Time Altitude Azimuth Time Altitude Azimuth
USA 229 DEB 4.0 04:25:37 61° ESE 04:25:37 61° ESE 04:32:06 10° NE
USA 229 4.0 04:25:41 60° ESE 04:25:41 60° ESE 04:32:11 10° NE
CZ-3 R/B 4.2 04:29:13 45° WSW 04:38:26 56° SSW 04:49:34 10° SE
BREEZE-M DEB (TANK) 4.1 04:40:07 35° ENE 04:40:07 35° ENE 04:44:35 10° ENE
Lacrosse 5 4.1 04:43:15 15° N 04:43:15 15° N 04:44:42 10° NNE
USA 267 3.2 04:36:16 10° SE 04:42:04 71° SSE 04:42:04 71° SSE
CZ-4C R/B 3.1 04:40:23 36° NNW 04:43:43 69° NE 04:51:42 10° SE
Nadezhda 1 Rocket 4.2 04:42:39 55° SSE 04:44:01 71° E 04:50:22 10° NNE
Cosmos 1943 Rocket 3.2 04:47:54 35° N 04:47:54 35° N 04:51:09 10° NNE
ADEOS II 2.9 04:49:03 10° NNE 04:52:28 42° N 04:52:28 42° N
Tiangong 2 4.1 05:00:31 17° E 05:00:31 17° E 05:01:23 10° E
Cosmos 44 4.1 05:00:40 41° SE 05:00:40 41° SE 05:03:52 10° SSE
Cosmos 2150 Rocket 4.1 05:06:05 64° N 05:06:05 64° N 05:10:38 10° NNE
Okean O Rocket 1.9 05:03:02 10° NNE 05:07:24 63° E 05:07:32 63° ESE
Cosmos 1937 Rocket 3.9 05:10:36 50° NNW 05:10:36 50° NNW 05:14:46 10° NNE
Cosmos 2154 Rocket 4.0 05:10:57 10° N 05:17:20 87° E 05:23:37 10° S
Cosmos 1758 Rocket 3.6 05:18:13 67° SSE 05:18:47 82° E 05:23:18 10° N
Cosmos 44 Rocket 3.4 05:20:56 59° SSW 05:20:56 59° SSW 05:25:10 10° SSE
Shenzhou-11 Module 4.3 05:22:32 23° SE 05:22:32 23° SE 05:23:49 10° ESE
Cosmos-2242 4.3 05:17:46 10° N 05:21:50 41° ENE 05:25:54 10° SSE
Cosmos 2369 Rocket 3.9 05:28:59 18° NNW 05:28:59 18° NNW 05:31:20 10° N
Meteor 2-19 Rocket 4.4 05:25:15 10° NNW 05:31:15 56° W 05:37:13 10° SSW
Cosmos 990 Rocket 4.4 05:32:37 41° NW 05:32:37 41° NW 05:37:00 10° N
Meteor 1-31 Rocket 2.7 05:37:52 10° NNE 05:41:41 79° E 05:45:29 10° S
RUBIN 8/PSLV 4.5 05:38:42 10° N 05:42:56 58° WNW 05:44:10 41° SW
Milstar 3 3.8 05:43:13 23° SW 05:46:10 33° S 05:53:06 10° SE
Cosmos 1707 3.2 05:51:04 39° NW 05:51:04 39° NW 05:54:15 10° N
Cosmos 962 Rocket 4.4 05:49:31 10° NNW 05:55:36 65° W 06:01:37 10° S
Cosmos 2219 3.3 05:50:07 10° NNW 05:55:49 77° ENE 06:01:27 10° SSE
APEX 3.6 05:57:23 34° WNW 05:58:38 46° WSW 06:03:09 10° S
SJ-6F 4.3 05:54:58 10° N 05:59:05 82° W 06:03:07 10° SSW
Meteor 2-5 Rocket 3.7 05:53:55 10° SSW 05:59:48 70° W 06:05:39 10° N
Cosmos 1378 4.0 06:01:44 30° WNW 06:01:44 30° WNW 06:04:33 10° NNW
Meteor 2-14 Rocket 4.4 05:57:07 10° N 06:03:13 86° E 06:09:17 10° S
Cosmos 2341 Rocket 4.1 06:01:18 10° NNW 06:07:29 54° W 06:13:40 10° SSW
Cosmos 2297 Rocket 4.1 06:02:47 10° N 06:07:42 30° ENE 06:12:35 10° ESE
Cosmos 158 Rocket 4.0 06:02:48 10° NNW 06:08:14 84° WSW 06:13:37 10° SSE
GPS 2-04 Rocket1 3.7 06:07:14 23° SW 06:08:28 29° SSW 06:11:40 10° SE
Cosmos 2181 Rocket 4.0 06:03:05 10° SSW 06:09:13 59° W 06:15:20 10° N
Cosmos 1953 Rocket 4.4 06:09:02 25° W 06:10:02 27° WNW 06:13:45 10° NNW
USA 81 4.0 06:06:36 10° SSW 06:11:50 70° W 06:17:07 10° N
Cosmos 1656 Rocket 4.5 06:09:35 21° WSW 06:12:20 31° WNW 06:17:21 10° N
EO 1 Del DPAF 3.3 06:08:56 10° SSE 06:12:45 82° ENE 06:16:37 10° N
SJ 16-02 1.2 06:08:47 10° SSW 06:13:10 72° WNW 06:17:33 10° NNE
NOSS 3-1 (C) 3.6 06:10:26 16° WSW 06:14:55 49° NW 06:21:09 10° NNE
OAO 2 Rocket 3.8 06:12:44 21° WSW 06:15:47 46° SSW 06:20:31 10° ESE
In-Cosmos 22 4.2 06:12:55 10° S 06:18:30 90° SSW 06:24:15 10° N
NOSS 3-1 (A) 3.4 06:14:42 10° SW 06:20:21 62° NW 06:26:45 10° NNE
Meteor 1-16 Rocket 4.4 06:15:03 10° NNW 06:20:30 50° W 06:26:05 10° SSW
SKYMED 2 3.6 06:20:41 10° SSE 06:25:01 84° ENE 06:29:22 10° N
SL-08 R/B 4.5 06:20:22 10° N 06:26:33 87° W 06:32:49 10° S
Cosmos 1959 Rocket 4.5 06:22:06 10° NNW 06:28:23 71° W 06:34:33 10° S
Landsat 4 4.5 06:25:09 10° SSW 06:28:30 30° W 06:31:52 10° NW
CZ-4B R/B 4.0 06:24:38 10° N 06:29:14 29° WNW 06:33:54 10° SW
Cosmos 1356 Rocket 4.4 06:25:38 10° SW 06:29:19 28° WNW 06:33:02 10° NNW
Cosmos 1943 Rocket 4.1 06:29:36 10° NW 06:30:26 10° NW 06:31:16 10° NW
CZ-4C R/B 3.8 06:25:56 10° WNW 06:31:59 27° WSW 06:38:22 10° SSW
ADEOS II 4.0 06:32:22 10° NW 06:33:11 10° WNW 06:33:24 10° WNW
Cosmos 2369 4.4 06:28:21 10° S 06:33:52 60° ESE 06:39:25 10° NNE
Tiangong 2 1.9 06:32:51 16° W 06:35:03 37° SSW 06:38:02 10° SE
Cosmos 1356 3.8 06:32:48 10° SSW 06:36:07 41° WNW 06:39:27 10° N
Cosmos 1269 Rocket 4.0 06:31:00 10° NNW 06:36:16 66° WSW 06:41:30 10° S
USA 116 4.3 06:33:55 10° SSW 06:37:00 29° W 06:40:25 10° NNW
Meteor 1-28 Rocket 4.0 06:37:39 10° SSW 06:41:03 31° W 06:44:29 10° NNW
Okean O Rocket 3.5 06:41:32 10° NW 06:43:13 12° WNW 06:44:54 10° W
Thor Agena Rocket 4.2 06:40:20 10° SSE 06:45:31 62° ENE 06:50:42 10° N
IDEFIX/ARIANE 42P 2.6 06:41:13 10° NNE 06:46:29 90° WNW 06:51:41 10° SSW
NOSS 2-3 (C) 4.4 06:46:05 10° SSW 06:50:36 63° ESE 06:55:48 10° NE
Shenzhou-11 Module 4.4 06:55:34 10° WSW 06:56:40 11° SW 06:57:45 10° SSW
Okean-O 3.3 06:53:11 10° N 06:57:11 34° WNW 07:01:10 10° SW
Cosmos 2278 3.8 06:52:39 10° SSW 06:58:17 88° WNW 07:03:59 10° NNE
PAYLOAD A 3.9 06:54:55 10° N 06:59:33 58° WNW 07:04:16 10° SSW
ORS 1 (USA 231) 4.5 06:56:41 10° W 06:59:36 69° N 07:02:31 10° E
Cosmos 2366 rocket 4.3 06:55:38 10° NNW 07:01:21 42° W 07:07:04 10° SSW
